Weather History for K36U - October, 2013

Change the Weather History Date:

Saturday, October 12, 2013

  Actual Average (KSLC) Record (KSLC)
Temperature  
Mean Temperature 43 °F 54 °F  
Max Temperature 60 °F 67 °F 86 °F (1996)
Min Temperature 26 °F 43 °F 28 °F (1986)
Degree Days  
Heating Degree Days 22 11  
Month to date heating degree days 105  
Since 1 July heating degree days 194  
Cooling Degree Days 0 0  
Month to date cooling degree days 5  
Year to date cooling degree days 1158  
Moisture  
Dew Point 29 °F    
Average Humidity 65    
Maximum Humidity 100    
Minimum Humidity 27    
Precipitation  
Precipitation 0.00 in 0.04 in 0.64 in (1904)
Month to date precipitation 0.56  
Year to date precipitation 12.28  
Snow  
Snow 0.00 in 0.00 in T in (1969)
Month to date snowfall 0.2  
Since 1 July snowfall 0.2  
Snow Depth -    
Sea Level Pressure  
Sea Level Pressure 30.05 in    
Wind  
Wind Speed 3 mph (SSW)    
Max Wind Speed 13 mph    
Max Gust Speed 18 mph    
Visibility 10 miles    
Events      
T = Trace of Precipitation, MM = Missing Value Source: NWS Daily Summary

Daily Weather History Graph

Daily Weather History Graph

Search for Another Location

Airport or City:

Trip Planner

Search our weather history database for the weather conditions in past years. The results will help you decide how hot, cold, wet, or windy it might be!

Date:

Astronomy

Oct. 12, 2013 Rise Set
Actual Time 7:33 AM MDT 6:49 PM MDT
Civil Twilight 7:06 AM MDT 7:17 PM MDT
Nautical Twilight 6:34 AM MDT 7:48 PM MDT
Astronomical Twilight 6:03 AM MDT 8:20 PM MDT
Moon 3:03 PM MDT (10/12) 12:39 AM MDT (10/12)
Length of Visible Light 12h 10m
Length of Day
11h 15m
First Quarter, 59% of the Moon is Illuminated
Oct 12
First Quarter
Oct 18
Full
Oct 26
Last Quarter
Nov 3
New
Nov 9
First Quarter

Hourly Weather History & Observations

Time (MDT) Temp. Windchill Dew Point Humidity Pressure Visibility Wind Dir Wind Speed Gust Speed Precip Events Conditions
12:15 AM 32.0 °F - 28.4 °F 87% 30.12 in 10.0 mi Calm Calm - N/A   Clear
12:35 AM 30.2 °F 26.7 °F 26.6 °F 86% 30.12 in 10.0 mi East 3.5 mph - N/A   Clear
12:55 AM 32.0 °F - 28.4 °F 87% 30.12 in 10.0 mi Calm Calm - N/A   Clear
1:15 AM 30.2 °F - 26.6 °F 86% 30.12 in 10.0 mi Calm Calm - N/A   Clear
1:35 AM 32.0 °F - 28.4 °F 87% 30.12 in 10.0 mi Calm Calm - N/A   Clear
1:55 AM 32.0 °F - 28.4 °F 87% 30.13 in 10.0 mi Calm Calm - N/A   Clear
2:15 AM 30.2 °F - 28.4 °F 93% 30.13 in 10.0 mi Calm Calm - N/A   Clear
2:35 AM 28.4 °F 23.3 °F 26.6 °F 93% 30.13 in 10.0 mi ESE 4.6 mph - N/A   Clear
2:55 AM 28.4 °F 23.3 °F 26.6 °F 93% 30.13 in 10.0 mi ESE 4.6 mph - N/A   Clear
3:15 AM 30.2 °F - 26.6 °F 86% 30.13 in 10.0 mi Calm Calm - N/A   Clear
3:35 AM 28.4 °F - 26.6 °F 93% 30.13 in 10.0 mi Calm Calm - N/A   Clear
3:55 AM 28.4 °F - 26.6 °F 93% 30.12 in 10.0 mi Calm Calm - N/A   Clear
4:15 AM 28.4 °F - 26.6 °F 93% 30.11 in 10.0 mi Calm Calm - N/A   Clear
4:35 AM 28.4 °F - 26.6 °F 93% 30.11 in 10.0 mi Calm Calm - N/A   Clear
4:55 AM 26.6 °F 22.6 °F 26.6 °F 100% 30.12 in 10.0 mi ESE 3.5 mph - N/A   Clear
5:15 AM 26.6 °F 20.0 °F 24.8 °F 93% 30.11 in 10.0 mi ESE 5.8 mph - N/A   Clear
5:35 AM 28.4 °F 24.6 °F 26.6 °F 93% 30.12 in 10.0 mi SE 3.5 mph - N/A   Clear
5:55 AM 26.6 °F 22.6 °F 23.0 °F 86% 30.12 in 10.0 mi ESE 3.5 mph - N/A   Clear
6:15 AM 26.6 °F - 24.8 °F 93% 30.12 in 10.0 mi Calm Calm - N/A   Clear
6:35 AM 28.4 °F - 26.6 °F 93% 30.12 in 10.0 mi Calm Calm - N/A   Clear
6:55 AM 26.6 °F - 26.6 °F 100% 30.12 in 10.0 mi Calm Calm - N/A   Clear
7:15 AM 26.6 °F - 26.6 °F 100% 30.12 in 10.0 mi Calm Calm - N/A   Clear
7:35 AM 28.4 °F 23.3 °F 26.6 °F 93% 30.12 in 10.0 mi ESE 4.6 mph - N/A   Clear
7:55 AM 28.4 °F 23.3 °F 26.6 °F 93% 30.12 in 10.0 mi SE 4.6 mph - N/A   Clear
8:15 AM 30.2 °F - 28.4 °F 93% 30.12 in 10.0 mi Calm Calm - N/A   Clear
8:35 AM 32.0 °F - 28.4 °F 87% 30.13 in 10.0 mi Calm Calm - N/A   Clear
8:55 AM 32.0 °F - 28.4 °F 87% 30.13 in 10.0 mi Calm Calm - N/A   Clear
9:15 AM 32.0 °F - 30.2 °F 93% 30.13 in 10.0 mi Calm Calm - N/A   Clear
9:35 AM 32.0 °F - 30.2 °F 93% 30.13 in 10.0 mi Calm Calm - N/A   Clear
9:55 AM 33.8 °F - 30.2 °F 87% 30.13 in 10.0 mi Calm Calm - N/A   Clear
10:15 AM 35.6 °F - 32.0 °F 87% 30.12 in 10.0 mi Calm Calm - N/A   Clear
10:35 AM 37.4 °F - 30.2 °F 75% 30.11 in 10.0 mi Calm Calm - N/A   Clear
10:55 AM 41.0 °F - 32.0 °F 70% 30.11 in 10.0 mi Calm Calm - N/A   Scattered Clouds
11:15 AM 42.8 °F - 30.2 °F 61% 30.10 in 10.0 mi Calm Calm - N/A   Scattered Clouds
11:35 AM 44.6 °F - 30.2 °F 57% 30.09 in 10.0 mi Calm Calm - N/A   Scattered Clouds
11:55 AM 46.4 °F - 30.2 °F 53% 30.08 in 10.0 mi Calm Calm - N/A   Clear
12:15 PM 50.0 °F - 32.0 °F 50% 30.06 in 10.0 mi Calm Calm - N/A   Clear
12:35 PM 51.8 °F - 32.0 °F 47% 30.05 in 10.0 mi Calm Calm - N/A   Clear
12:55 PM 53.6 °F - 30.2 °F 41% 30.04 in 10.0 mi West 4.6 mph - N/A   Clear
1:15 PM 55.4 °F - 30.2 °F 38% 30.03 in 10.0 mi West 8.1 mph - N/A   Clear
1:35 PM 60.8 °F - 30.2 °F 31% 30.02 in 10.0 mi WSW 11.5 mph 16.1 mph N/A   Clear
1:55 PM 57.2 °F - 28.4 °F 33% 30.01 in 10.0 mi WSW 9.2 mph - N/A   Clear
2:15 PM 59.0 °F - 28.4 °F 31% 30.00 in 10.0 mi West 4.6 mph - N/A   Clear
2:35 PM 60.8 °F - 28.4 °F 29% 29.99 in 10.0 mi WSW 12.7 mph - N/A   Clear
2:55 PM 60.8 °F - 28.4 °F 29% 29.99 in 10.0 mi SW 11.5 mph 17.3 mph N/A   Clear
3:15 PM 60.8 °F - 28.4 °F 29% 29.98 in 10.0 mi WSW 11.5 mph 18.4 mph N/A   Clear
3:35 PM 60.8 °F - 26.6 °F 27% 29.97 in 10.0 mi West 11.5 mph 17.3 mph N/A   Clear
3:55 PM 60.8 °F - 26.6 °F 27% 29.97 in 10.0 mi West 10.4 mph - N/A   Clear
4:15 PM 60.8 °F - 26.6 °F 27% 29.96 in 10.0 mi West 6.9 mph - N/A   Clear
4:35 PM 60.8 °F - 26.6 °F 27% 29.95 in 10.0 mi WSW 11.5 mph - N/A   Clear
4:55 PM 59.0 °F - 26.6 °F 29% 29.95 in 10.0 mi WSW 6.9 mph 11.5 mph N/A   Clear
5:15 PM 59.0 °F - 26.6 °F 29% 29.95 in 10.0 mi SW 10.4 mph - N/A   Clear
5:35 PM 55.4 °F - 28.4 °F 36% 29.96 in 10.0 mi WSW 10.4 mph - N/A   Clear
5:55 PM 55.4 °F - 28.4 °F 36% 29.96 in 10.0 mi SW 8.1 mph - N/A   Clear
6:15 PM 53.6 °F - 26.6 °F 35% 29.96 in 10.0 mi South 3.5 mph - N/A   Clear
6:35 PM 51.8 °F - 28.4 °F 41% 29.96 in 10.0 mi SE 3.5 mph - N/A   Clear
6:55 PM 50.0 °F - 30.2 °F 47% 29.97 in 10.0 mi South 3.5 mph - N/A   Clear
7:15 PM 50.0 °F - 28.4 °F 43% 29.97 in 10.0 mi SSE 3.5 mph - N/A   Clear
7:35 PM 46.4 °F - 30.2 °F 53% 29.97 in 10.0 mi Calm Calm - N/A   Clear
7:55 PM 46.4 °F 44.3 °F 32.0 °F 57% 29.97 in 10.0 mi ESE 4.6 mph - N/A   Clear
8:15 PM 51.8 °F - 32.0 °F 47% 29.98 in 10.0 mi SSE 3.5 mph - N/A   Clear
8:35 PM 50.0 °F - 32.0 °F 50% 29.98 in 10.0 mi Calm Calm - N/A   Mostly Cloudy
8:55 PM 50.0 °F - 32.0 °F 50% 29.98 in 10.0 mi Calm Calm - N/A   Mostly Cloudy
9:15 PM 50.0 °F - 32.0 °F 50% 29.98 in 10.0 mi Calm Calm - N/A   Mostly Cloudy
9:35 PM 50.0 °F - 33.8 °F 54% 29.97 in 10.0 mi NNW 3.5 mph - N/A   Mostly Cloudy
9:55 PM 48.2 °F - 33.8 °F 58% 29.98 in 10.0 mi NW 5.8 mph - N/A   Mostly Cloudy
10:15 PM 51.8 °F - 32.0 °F 47% 29.98 in 10.0 mi SW 10.4 mph 16.1 mph N/A   Overcast
10:35 PM 51.8 °F - 32.0 °F 47% 29.98 in 10.0 mi SW 9.2 mph - N/A   Overcast
10:55 PM 51.8 °F - 32.0 °F 47% 29.98 in 10.0 mi Calm Calm - N/A   Overcast
11:15 PM 50.0 °F - 35.6 °F 58% 29.98 in 10.0 mi North 8.1 mph - N/A   Overcast
11:35 PM 48.2 °F - 37.4 °F 66% 29.98 in 10.0 mi North 4.6 mph - N/A   Overcast
11:55 PM 46.4 °F 45.2 °F 37.4 °F 71% 29.98 in 10.0 mi ENE 3.5 mph - N/A   Overcast